Home   Weather   40°42'N, 74°04'W   Past weeks
Flag for USA

Past Weather in 40°42'N, 74°04'W, USA — Yesterday and Last 2 Weeks

Now
66 °F

Fog.


Feels Like: 66 °F
Forecast: 72 / 68 °F
Wind: 3 mph from North

Location: New York City - Central Park

Current Time: Jun 19, 2019 at 7:18:55 am

Latest Report: Jun 19, 2019 at 6:51 am


Visibility: 3 mi

Pressure: 29.87 "Hg

Humidity: 96%

Dew Point: 65 °F

Location of 40°42'N, 74°04'WLocation

Past Weather in 40°42'N, 74°04'W — Graph

°F

40°42'N, 74°04'W Temperature Yesterday

Maximum temperature yesterday: 73 °F (at 10:51 am)
Minimum temperature yesterday: 67 °F (at 9:00 pm)
Average temperature yesterday: 70 °F

High & Low Weather Summary for the Past Weeks

 TemperatureHumidityPressure
High82 °F (Jun 6, 2:51 pm)97% (Jun 10, 1:27 pm)30.32 "Hg (Jun 10, 1:27 pm)
Low55 °F (Jun 4, 5:51 am)29% (Jun 8, 1:51 pm)29.59 "Hg (Jun 15, 10:51 am)
Average69 °F70%29.96 "Hg
* Reported Jun 4 5:51 am — Jun 19 5:51 am, 40°42'N, 74°04'W. Weather by CustomWeather, © 2019

Note: Actual official high and low records may vary slightly from our data, if they occured in-between our weather recording intervals... More about our weather records

Advertising

40°42'N, 74°04'W Weather History for the Previous 24 Hours

Scroll right to see more
 ConditionsComfort  
Time TempWeatherWind HumidityBarometerVisibility
5:51 am
Wed, Jun 19
67 °FFog.No wind97%29.87 "Hg1 mi
4:51 am67 °FFog.No wind97%29.86 "Hg1 mi
4:05 am67 °FFog.3 mph97%29.90 "Hg1 mi
3:51 am67 °FFog.No wind97%29.87 "Hg1 mi
3:31 am67 °FFog.3 mph97%29.89 "Hg2 mi
3:22 am67 °FFog.3 mph93%29.90 "Hg1 mi
3:00 am67 °FFog.No wind93%29.90 "Hg2 mi
1:51 am67 °FFog.No wind93%29.88 "Hg1 mi
1:28 am66 °FFog.No wind96%29.91 "Hg2 mi
1:10 am67 °FFog.3 mph93%29.91 "Hg2 mi
12:51 am67 °FFog.No wind97%29.89 "Hg1 mi
12:08 am67 °FFog.3 mph97%29.92 "Hg2 mi
10:51 pm
Tue, Jun 18
67 °FFog.3 mph93%29.89 "Hg2 mi
10:38 pm67 °FLight rain. Fog.5 mph97%29.92 "Hg2 mi
10:15 pm67 °FFog.6 mph93%29.92 "Hg3 mi
9:51 pm67 °FLight rain. Fog.3 mph97%29.88 "Hg2 mi
9:36 pm67 °FLight rain. Fog.10 mph97%29.90 "Hg2 mi
9:19 pm67 °FFog.5 mph97%29.90 "Hg3 mi
9:00 pm67 °FFog.5 mph97%29.89 "Hg3 mi
7:51 pm70 °FFog.3 mph97%29.85 "Hg2 mi
7:30 pm70 °FLight rain. Fog.3 mph97%29.88 "Hg2 mi
6:29 pm70 °FLight rain. Fog.5 mph97%29.87 "Hg1 mi
5:51 pm71 °FHeavy rain. Fog.5 mph93%29.83 "Hg1 mi
5:25 pm71 °FLight rain. Fog.3 mph93%29.88 "Hg1 mi
4:51 pm71 °FFog.3 mph93%29.85 "Hg2 mi
4:20 pm71 °FFog.3 mph93%29.89 "Hg2 mi
3:51 pm72 °FFog.No wind93%29.87 "Hg4 mi
3:35 pm71 °FFog.No wind96%29.90 "Hg2 mi
3:19 pm71 °FLight rain. Fog.No wind93%29.91 "Hg1 mi
2:51 pm71 °FLight rain. Fog.No wind96%29.89 "Hg1 mi
2:39 pm71 °FLight rain. Fog.No wind93%29.91 "Hg2 mi
2:16 pm71 °FLight rain. Fog.6 mph96%29.91 "Hg1 mi
1:51 pm71 °FRain. Fog.No wind96%29.88 "Hg1 mi
1:19 pm71 °FLight rain. Fog.3 mph96%29.93 "Hg1 mi
1:01 pm71 °FRain. Fog.No wind96%29.94 "Hg1 mi
12:21 pm71 °FLight rain. Fog.3 mph93%29.94 "Hg2 mi
12:09 pm72 °FRain. Fog.5 mph91%29.94 "Hg1 mi
11:54 am73 °FFog.3 mph88%29.95 "Hg3 mi
10:51 am73 °FFog.No wind90%29.93 "Hg5 mi
10:18 am72 °FLight rain. Fog.No wind93%29.96 "Hg3 mi
9:51 am71 °FFog.No wind93%29.94 "Hg4 mi
9:23 am71 °FFog.No wind93%29.97 "Hg5 mi
9:06 am70 °FFog.No wind97%29.98 "Hg4 mi
8:51 am70 °FFog.5 mph93%29.95 "Hg2 mi
8:23 am70 °FFog.N/A94%29.99 "Hg1 mi
7:51 am70 °FLight rain. Fog.No wind93%29.96 "Hg1 mi
7:14 am70 °FHeavy rain. Fog.No wind93%29.99 "Hg1 mi
Weather by CustomWeather, © 2019

See weather overview